User: anonymous   Login
Location: Caltech
(34.1382°N, 118.1253°W)
Time: 02:29:01
(UTC-08:00)
Language:

Meteor 2-4 Rocket - Orbit

View from above orbital plane
View from above orbital plane
View from above satellite
View from above satellite

Ground track
Ground track

The orbit data is extracted from the following two-line orbital elements,

1 11289U 79021B   17022.19903700 -.00000052  00000-0 -34167-4 0  9995
2 11289  81.2484 306.5676 0074937 288.1654  71.1368 14.11553328950235
Epoch (UTC): 22 January 2017 04:46:36
Eccentricity: 0.0074937
inclination: 81.2484°
perigee height: 800 km
apogee height: 908 km
right ascension of ascending node: 306.5676°
argument of perigee: 288.1654°
revolutions per day: 14.11553328
mean anomaly at epoch: 71.1368°
orbit number at epoch: 95023

The dashed part of the orbit path shows where the satellite is in the earth's shadow,  

DLR